Wind_Speed
24 23 22 20 19 19 19 19 19 19 19 20 19 18 17 16 16 15 14 14 13 13 11 10 10 9 7 5 5 6 6 7 7 8 9 10 12 14 16 18 20 22
25 24 23 22 21 21 20 20 20 20 21 21 20 19 18 17 16 16 15 15 14 13 11 10 10 9 9 7 7 8 8 8 8 8 9 10 12 14 16 19 21 22
27 26 24 23 22 22 21 21 21 21 22 22 21 20 18 18 17 17 17 16 14 13 12 11 10 10 10 9 10 10 11 10 10 9 10 11 12 14 17 19 21 23
28 28 25 24 24 24 24 23 23 22 22 22 21 20 19 19 19 18 18 16 15 13 12 12 11 11 11 12 12 13 13 12 12 11 10 11 12 14 17 20 22 24
30 29 27 26 26 26 26 25 24 23 23 22 21 21 20 20 19 19 18 16 15 14 13 12 12 13 13 14 15 15 15 14 14 12 11 11 13 15 18 20 22 25
31 30 28 28 28 28 27 26 25 25 24 23 22 22 21 21 20 19 17 16 16 15 14 13 13 13 14 15 16 16 16 15 15 14 13 13 14 16 19 21 23 26
33 31 29 29 29 29 28 28 27 27 25 24 24 23 22 22 21 19 18 17 17 16 15 14 14 14 14 15 15 15 15 15 15 14 14 14 15 18 21 23 25 27
34 32 30 30 30 30 30 30 29 28 26 26 25 24 24 23 22 20 19 18 18 17 16 15 15 15 15 15 15 15 15 16 16 15 15 16 17 20 22 24 26 29
35 33 32 31 31 31 32 31 30 29 28 27 26 25 25 24 22 21 20 19 19 18 18 17 17 16 16 16 16 16 16 17 17 17 17 17 19 21 24 26 28 30
36 35 34 33 33 33 33 32 31 30 29 27 27 26 26 25 23 22 21 20 20 19 19 19 19 18 17 17 17 17 18 18 18 19 19 20 21 23 25 27 29 31
38 37 36 35 35 35 34 34 32 31 29 28 28 27 27 26 25 23 23 22 21 20 20 20 19 19 18 18 18 18 19 20 20 21 22 23 24 25 27 29 30 31
39 40 39 37 37 36 36 35 33 32 30 30 29 29 28 27 26 25 24 23 22 21 20 20 19 19 19 19 19 20 20 21 22 22 24 25 27 28 29 30 30 31
41 41 40 39 38 38 38 37 35 33 32 31 30 30 29 28 27 26 25 24 23 22 21 21 20 20 20 21 21 22 22 22 22 23 24 26 27 28 29 29 30 32
41 41 41 40 40 40 40 39 38 36 34 33 32 31 30 29 28 27 26 25 24 23 23 23 22 22 22 22 23 23 23 23 23 24 25 26 26 27 28 29 31 32
42 41 41 42 42 42 42 41 40 38 37 35 34 33 31 30 29 28 27 27 26 25 25 25 25 25 24 24 24 25 25 24 24 25 26 26 26 27 28 30 31 33
42 41 42 43 45 45 44 43 41 40 39 38 36 34 33 32 31 30 28 28 28 27 27 26 26 26 26 26 26 26 26 25 25 26 26 27 27 28 30 31 32 33
44 43 43 45 46 46 45 44 43 42 41 39 38 36 36 34 33 31 30 29 30 30 29 28 28 27 27 27 28 28 27 27 27 27 27 27 28 30 31 32 33 34
46 46 46 46 46 46 46 45 44 43 43 41 40 38 37 35 34 33 31 31 31 32 31 31 30 29 29 29 30 30 29 29 28 28 28 29 30 31 32 33 34 35
47 47 47 47 47 46 45 45 45 45 45 43 42 40 38 37 36 35 34 33 33 33 33 33 32 31 31 31 31 31 31 30 30 30 30 31 31 32 33 34 35 36
47 48 48 47 47 46 45 46 47 47 46 45 43 41 41 40 38 36 37 36 36 36 36 35 34 33 33 33 33 33 33 32 31 31 32 32 33 33 34 34 36 37
48 48 48 48 47 47 46 47 48 48 48 46 45 43 42 41 39 38 39 39 39 39 38 37 36 35 35 35 35 35 34 33 33 33 33 33 33 34 35 36 37 38
46 48 48 49 49 48 49 49 49 48 48 48 46 45 44 42 40 39 39 39 40 40 40 39 38 37 37 37 36 36 36 35 34 34 34 34 34 35 36 37 38 38
43 46 48 49 50 50 50 50 50 50 49 48 47 47 45 44 42 40 39 40 41 41 41 40 39 38 38 38 37 37 37 37 36 35 35 34 34 35 37 38 38 36
40 43 45 47 48 50 51 52 52 51 50 49 48 48 47 45 43 41 41 42 42 42 42 41 39 39 39 39 37 37 38 38 37 37 36 35 35 36 38 38 37 34
39 41 43 44 45 47 49 51 53 53 52 51 50 50 49 47 45 43 43 44 44 43 42 41 40 40 41 40 38 38 39 39 38 38 37 36 36 38 39 39 36 32
38 39 40 40 41 43 45 48 51 53 53 54 53 52 51 49 47 46 46 46 45 44 43 42 42 42 41 41 39 39 39 39 39 39 38 37 38 39 40 38 35 31
Wind_Direction
212 212 212 211 211 212 214 216 216 216 217 219 221 223 226 227 229 232 235 239 242 245 245 244 241 242 249 264 281 305 324 332 335 337 342 346 349 353 356 355 355 354
215 215 213 212 212 214 216 218 218 218 219 222 225 227 228 230 233 236 240 243 247 251 253 254 252 249 251 260 272 290 307 316 320 324 330 336 341 346 349 349 350 351
217 217 215 213 213 215 217 219 220 221 223 226 228 230 230 231 234 237 241 245 248 252 256 259 260 261 263 267 276 285 296 304 308 313 319 326 332 338 342 343 344 346
219 220 217 214 213 214 216 218 220 222 225 228 230 230 231 232 234 238 241 245 248 252 257 262 266 270 273 277 281 286 292 297 301 305 309 316 323 331 335 336 338 340
220 221 218 214 213 215 217 218 219 222 225 228 230 230 231 232 234 238 243 247 250 253 257 263 270 275 279 282 285 288 291 295 298 300 302 308 315 323 328 330 332 335
221 221 217 214 215 216 217 217 218 220 222 225 227 229 230 231 234 238 243 248 253 256 259 264 272 278 282 285 287 289 291 294 295 296 299 304 310 318 323 325 327 331
224 224 220 217 217 217 216 217 218 219 220 220 222 225 227 231 235 239 244 249 254 258 262 267 273 279 284 287 289 290 290 291 291 293 298 303 309 316 320 322 325 329
227 227 224 220 219 217 217 218 218 218 218 218 219 221 225 231 236 241 245 249 255 260 265 270 275 280 285 288 289 289 289 289 290 293 298 303 309 314 317 319 324 327
229 228 226 223 220 218 218 219 219 218 218 218 218 222 227 232 237 241 246 250 256 262 268 273 277 281 285 288 288 288 287 288 291 294 298 303 308 311 313 317 322 325
229 228 227 224 222 221 222 222 220 219 218 218 220 224 229 234 237 241 246 251 257 263 269 273 276 279 282 285 287 287 288 290 294 297 301 305 308 308 311 315 319 321
227 228 227 225 224 224 224 224 223 221 220 219 222 226 230 234 239 243 248 253 259 263 266 269 272 275 280 284 288 290 292 294 297 300 302 303 304 306 309 312 315 317
226 227 227 225 224 225 225 226 225 223 222 222 224 228 232 236 241 246 252 257 259 261 262 264 269 277 284 289 293 295 296 297 298 298 298 298 300 303 306 309 312 314
227 227 228 227 225 226 226 226 226 226 225 226 228 230 234 238 243 249 255 257 258 259 261 265 272 280 287 292 296 299 299 299 298 296 296 297 299 302 305 307 310 312
227 228 229 229 228 227 227 227 227 227 228 229 230 233 236 241 245 251 255 256 256 258 262 268 275 282 287 292 296 299 299 298 296 296 297 299 301 303 304 307 309 312
228 229 230 231 230 229 228 228 228 228 230 231 233 235 238 242 246 251 255 255 256 259 264 269 275 282 287 293 297 298 298 296 294 295 298 300 302 303 305 307 309 312
227 229 231 232 233 232 231 230 230 230 231 233 235 237 240 243 247 251 254 255 256 260 265 270 275 282 288 294 296 297 297 294 293 294 297 300 301 302 304 307 310 312
227 228 230 233 234 235 234 233 233 233 233 235 236 238 241 244 247 251 254 255 256 260 265 270 275 281 287 292 294 295 295 292 291 293 296 298 300 302 304 307 310 313
229 228 229 232 234 236 237 236 236 236 236 237 238 240 242 245 248 251 255 257 258 260 264 269 274 280 286 289 291 293 292 291 291 293 295 296 299 302 304 307 310 313
232 231 230 231 233 236 238 239 239 239 239 239 241 242 244 247 249 252 256 259 261 263 264 267 272 278 283 286 288 290 290 290 291 293 294 296 299 301 304 307 310 313
235 235 234 233 233 234 237 240 241 241 241 242 243 244 246 248 251 254 258 261 263 263 264 267 271 276 280 284 286 287 289 289 290 292 294 296 299 301 303 307 310 312
237 238 238 237 236 235 236 238 241 242 243 243 244 245 246 249 252 255 258 261 262 262 264 265 269 274 279 282 284 286 287 288 288 290 293 295 298 301 303 306 309 311
238 239 240 240 239 237 236 237 240 242 243 244 244 245 247 248 250 253 257 261 262 261 261 263 268 273 277 280 282 284 286 286 287 289 291 294 297 300 302 305 307 310
239 240 241 241 241 240 239 238 239 241 242 244 244 245 246 247 249 252 256 260 260 260 260 263 267 271 275 278 280 282 284 284 285 287 289 292 296 298 301 303 305 307
238 239 240 241 242 242 242 241 240 240 242 243 244 245 245 247 249 252 255 258 259 259 260 263 266 270 274 277 278 280 281 283 284 285 288 291 295 297 298 301 304 304
237 238 239 240 241 242 243 243 242 242 242 242 244 245 246 248 250 253 255 256 257 258 260 263 266 270 273 275 276 277 279 280 282 284 287 291 294 295 298 300 302 300
236 237 238 239 240 242 243 244 244 244 243 243 244 245 247 248 250 252 254 255 256 257 260 262 266 270 272 273 273 275 276 277 280 283 287 291 293 295 297 299 298 295
Height
10989 10990 10992 10994 10997 10998 10999 11001 11002 11003 11004 11005 11006 11007 11008 11009 11010 11011 11012 11012 11013 11013 11014 11015 11015 11016 11016 11016 11016 11016 11016 11015 11015 11014 11014 11013 11013 11012 11012 11010 11009 11008
10988 10989 10991 10993 10995 10997 10998 11000 11001 11002 11003 11004 11005 11006 11007 11008 11009 11010 11011 11011 11012 11012 11013 11014 11014 11015 11015 11016 11016 11015 11015 11015 11015 11014 11013 11013 11012 11012 11011 11010 11008 11007
10986 10987 10989 10991 10993 10995 10997 10998 10999 11001 11002 11003 11004 11005 11006 11007 11008 11009 11010 11011 11012 11012 11012 11013 11013 11014 11014 11015 11015 11015 11015 11014 11014 11014 11013 11012 11012 11011 11010 11009 11007 11006
10985 10986 10988 10990 10992 10993 10994 10996 10998 10999 11001 11002 11003 11004 11005 11006 11007 11008 11009 11010 11011 11012 11012 11012 11013 11013 11013 11014 11014 11014 11014 11014 11013 11013 11012 11012 11011 11010 11009 11008 11006 11005
10983 10984 10987 10988 10990 10991 10992 10994 10996 10998 10999 11001 11002 11003 11004 11005 11006 11007 11008 11009 11010 11011 11011 11012 11012 11012 11012 11012 11012 11012 11012 11012 11012 11011 11011 11011 11010 11009 11008 11006 11005 11004
10980 10982 10984 10986 10987 10989 10991 10992 10994 10995 10997 10999 11000 11001 11002 11003 11005 11006 11007 11008 11009 11010 11010 11011 11011 11011 11011 11011 11011 11011 11011 11010 11010 11010 11010 11009 11009 11008 11006 11005 11004 11002
10977 10980 10982 10984 10985 10987 10989 10990 10991 10993 10995 10997 10998 11000 11001 11002 11003 11005 11006 11006 11007 11008 11009 11010 11010 11010 11010 11010 11010 11009 11009 11009 11009 11009 11008 11008 11007 11006 11005 11004 11002 11000
10976 10978 10980 10982 10984 10985 10986 10987 10989 10991 10992 10994 10996 10998 10999 11000 11002 11003 11004 11005 11005 11006 11007 11008 11008 11008 11009 11009 11008 11008 11008 11007 11007 11007 11007 11007 11006 11005 11003 11002 11000 10999
10974 10976 10978 10980 10981 10982 10983 10985 10987 10989 10990 10992 10994 10996 10997 10998 11000 11001 11002 11003 11004 11004 11005 11005 11006 11007 11007 11007 11007 11007 11006 11006 11005 11005 11005 11005 11004 11003 11001 11000 10999 10997
10972 10973 10975 10977 10979 10980 10981 10983 10985 10987 10989 10991 10992 10994 10995 10996 10998 10999 11000 11001 11002 11003 11003 11003 11004 11004 11005 11005 11005 11005 11005 11005 11004 11003 11003 11003 11002 11001 11000 10998 10997 10995
10969 10971 10973 10975 10976 10977 10979 10981 10983 10985 10987 10989 10990 10992 10993 10994 10996 10997 10998 10999 11000 11001 11001 11001 11002 11002 11003 11003 11003 11004 11004 11003 11003 11002 11001 11000 11000 10999 10998 10996 10995 10993
10966 10967 10969 10971 10973 10975 10976 10978 10980 10983 10985 10986 10988 10989 10991 10992 10993 10995 10996 10997 10998 10999 10999 11000 11000 11000 11000 11001 11001 11001 11001 11001 11001 11000 10999 10998 10997 10996 10995 10994 10993 10991
10962 10964 10966 10968 10970 10972 10973 10975 10977 10980 10982 10984 10985 10987 10988 10990 10991 10992 10993 10994 10995 10996 10997 10997 10997 10997 10998 10998 10998 10999 10999 10998 10998 10998 10997 10996 10995 10994 10992 10991 10990 10988
10958 10961 10963 10965 10967 10969 10970 10972 10974 10976 10978 10981 10982 10983 10985 10987 10988 10990 10991 10992 10993 10994 10994 10994 10994 10995 10995 10996 10996 10996 10996 10996 10995 10994 10994 10993 10992 10991 10990 10988 10987 10985
10954 10958 10960 10962 10964 10965 10966 10968 10970 10973 10975 10977 10979 10980 10982 10984 10985 10987 10988 10989 10990 10991 10991 10992 10992 10992 10992 10993 10993 10993 10993 10993 10992 10991 10991 10990 10989 10988 10987 10985 10984 10983
10951 10954 10957 10958 10959 10961 10963 10965 10968 10970 10972 10974 10976 10978 10979 10981 10982 10983 10985 10986 10987 10987 10988 10989 10989 10990 10990 10990 10990 10990 10990 10990 10989 10988 10988 10987 10986 10984 10983 10982 10981 10980
10947 10950 10952 10954 10955 10958 10960 10963 10965 10967 10969 10971 10973 10974 10976 10977 10979 10980 10982 10983 10984 10984 10985 10986 10986 10987 10987 10987 10987 10987 10987 10986 10986 10985 10985 10983 10982 10981 10980 10979 10978 10976
10943 10945 10947 10949 10951 10954 10957 10960 10962 10963 10965 10967 10969 10971 10973 10974 10975 10977 10978 10979 10980 10981 10982 10983 10983 10984 10984 10984 10984 10983 10983 10983 10982 10982 10981 10980 10979 10978 10976 10975 10974 10973
10939 10941 10942 10945 10947 10950 10954 10956 10958 10959 10961 10963 10966 10968 10969 10970 10971 10973 10974 10975 10977 10978 10979 10979 10980 10980 10981 10981 10981 10980 10980 10979 10979 10978 10977 10976 10975 10974 10973 10972 10971 10969
10935 10937 10939 10942 10944 10947 10950 10952 10953 10954 10956 10959 10962 10964 10965 10965 10967 10969 10970 10971 10973 10974 10974 10975 10976 10977 10977 10977 10977 10977 10976 10976 10975 10974 10973 10972 10972 10971 10970 10969 10967 10966
10932 10934 10936 10938 10940 10943 10945 10946 10948 10950 10952 10955 10957 10959 10960 10962 10964 10965 10965 10967 10968 10969 10970 10971 10972 10973 10973 10973 10973 10973 10973 10972 10972 10971 10970 10969 10968 10967 10966 10965 10963 10962
10928 10930 10932 10934 10936 10939 10940 10941 10943 10945 10948 10950 10953 10954 10955 10957 10959 10960 10961 10962 10964 10965 10966 10967 10969 10970 10969 10969 10970 10969 10968 10968 10968 10967 10967 10966 10965 10963 10962 10961 10960 10958
10924 10926 10928 10930 10932 10934 10935 10937 10938 10941 10943 10946 10948 10949 10950 10952 10954 10956 10958 10958 10959 10960 10961 10963 10965 10966 10965 10965 10966 10965 10964 10963 10963 10963 10963 10962 10961 10960 10959 10958 10957 10955
10919 10921 10923 10925 10927 10929 10930 10932 10934 10936 10939 10941 10942 10944 10945 10947 10950 10952 10953 10953 10954 10955 10956 10959 10961 10961 10961 10961 10962 10961 10959 10958 10958 10958 10958 10959 10958 10956 10955 10954 10953 10952
10915 10917 10918 10920 10922 10924 10926 10928 10929 10931 10934 10936 10937 10938 10940 10943 10945 10947 10948 10948 10949 10951 10952 10954 10956 10956 10956 10956 10957 10956 10955 10954 10953 10953 10954 10954 10953 10951 10950 10949 10948 10947
10911 10912 10914 10915 10917 10919 10921 10923 10924 10926 10929 10930 10932 10933 10936 10939 10940 10941 10942 10943 10944 10946 10948 10949 10950 10951 10951 10951 10952 10952 10950 10949 10949 10948 10949 10949 10948 10946 10945 10944 10943 10942